sat.trackr.live / text

‹ back to catalog

STARLINK-35594

NORAD 66157 · 2025-240M

PAYLOAD ACTIVE UNKNOWN

§ Identity

Operator
Country
US
Launch date
2025-10-25
Launch site
AFWTR
Launch vehicle
Mass (kg)
RCS (m²)

Purposes: comms

External: N2YO · Heavens-Above · Gunter

§ Orbital elements

Epoch: 2026-05-25T00:35:51.607104Z

Period
93.85 min
Inclination
53.1596°
Eccentricity
0.0001244
Mean motion
15.34402041 rev/d
Perigee alt
461.8 km
Apogee alt
463.5 km
Semi-major
6,840.8 km
B*
8.6134e-4
RAAN
67.6781°
Arg perigee
107.6033°
Mean anomaly
252.5105°
Rev number
3,368

§ Raw data

STARLINK-355941 66157U 25240M   26145.02490286  .00028839  00000+0  86134-3 0  99912 66157  53.1596  67.6781 0001244 107.6033 252.5105 15.34402041 33686

JSON: /api/v1/satellites/66157 · /tle

For live sub-satellite position, see the globe view (requires WebGL).

§ Visibility from observer

Set your observer location to see the next 7 days of passes ≥ 10°. The values pass through the URL so the page stays shareable.

No JS? Fill the form by hand. The geolocation button needs JavaScript.